Location: Bamazo
(6.7448°N, 10.8189°W)
Time: 03:17:19
(UTC+00:00)

GPS 2-14 Rocket1 - Pass Details

Date: 18 September 2020
Orbit: 476 x 541 km, 20.7° (Epoch: 23 October)

Event Time Altitude Azimuth Distance (km) Brightness Sun altitude
Rises 19:48:33 0° 276° (W) 2,502 8.0 -17.5°
Reaches altitude 10° 19:50:55 10° 265° (W) 1,628 6.5 -18.1°
Maximum altitude 19:54:15 30° 202° (SSW) 874 4.0 -19.0°
Enters shadow 19:55:32 24° 166° (SSE) 1,027 4.0 -19.3°
